Regional Weather Roundup
Issued by NWS

Home | Current Version | Previous Version | Text Only | Print | Product List | Glossary On
Versions: 1 2 3 4 5 6 7 8 9 10 11 12 13 14 15 16 17 18 19 20 21 22 23 24 25 26 27 28 29 30 31 32 33 34 35 36 37 38 39 40 41 42 43 44 45 46 47 48 49 50
000
ASUS43 KLSX 021059
RWRMO

WEATHER SUMMARY FOR MISSOURI
NATIONAL WEATHER SERVICE SPRINGFIELD MO
600 AM CDT SUN AUG 02 2015

NOTE: "FAIR" INDICATES FEW OR NO CLOUDS BELOW 12,000 FEET WITH NO
       SIGNIFICANT WEATHER AND/OR OBSTRUCTIONS TO VISIBILITY.
       CURRENT SKY AND/OR WEATHER CONDITIONS ARE NOT AVAILABLE FOR
       CHILLICOTHE AND FARMINGTON.

MOZ001>031-035>038-043-044-053-054-021200-
...NORTHERN AND WESTERN MISSOURI...

CITY           SKY/WX    TMP DP  RH WIND       PRES   REMARKS
KANSAS CTY INT CLEAR     72  67  84 SW8       29.92R
KANSAS C DTWN  PTCLDY    77  66  68 SW7       29.91S
LEE`S SUMMIT   PTCLDY    71  65  81 SW8       29.93S
ST JOSEPH      CLEAR     71  68  90 S5        29.90R
CHILLICOTHE      N/A     68  64  87 S3        29.92R
KIRKSVILLE     PTCLDY    68  61  78 SW6       29.92S

$$
MOZ066>068-077>081-088>096-101>105-021200-
...SOUTHWEST MISSOURI...

CITY           SKY/WX    TMP DP  RH WIND       PRES   REMARKS
SPRINGFIELD    CLEAR     70  66  87 CALM      29.98R
JOPLIN         CLEAR     69  65  86 S6        29.97S

$$
MOZ032>034-039>042-045>050-055>058-069>072-021200-
...CENTRAL MISSOURI...

CITY           SKY/WX    TMP DP  RH WIND       PRES   REMARKS
COLUMBIA       CLEAR     67  67 100 S6        29.95S
JEFFERSON CITY CLEAR     68  67  96 E3        29.94S
ROLLA          CLEAR     69  65  86 S8        29.96S
SEDALIA        CLEAR     67  64  90 S6        29.94S
WARRENSBURG    PTCLDY    66  64  94 S3        29.93R
OSAGE BEACH    CLEAR     66  64  94 CALM      29.96S

$$
MOZ051-052-059>065-021200-
...EAST CENTRAL MISSOURI...

CITY           SKY/WX    TMP DP  RH WIND       PRES   REMARKS
ST LOUIS INTL  PTCLDY    77  68  73 CALM      29.95S
SPIRIT OF STL  PTCLDY    70  69  97 CALM      29.93S
ST CHARLES     CLEAR     72  69  90 CALM      29.93S

$$
MOZ072>076-082>087-097>100-106>115-021200-
...SOUTH CENTRAL AND SOUTHEAST MISSOURI...

CITY           SKY/WX    TMP DP  RH WIND       PRES   REMARKS
CAPE GIRARDEAU PTCLDY    69  68  96 CALM      29.96R
FARMINGTON     PTCLDY    72  68  88 CALM      30.02S
POPLAR BLUFF   CLEAR     71  70  96 N3        29.95S FOG
WEST PLAINS    PTCLDY    67  64  90 CALM      30.01S

$$



USA.gov is the U.S. government's official web portal to all federal, state and local government web resources and services.